Content
SEND FEEDBACK

Daily
Averages
Monthly
Summary
United States of America

WINCHESTER, OREGON


Home > North America > United States > Oregon
Elevation: 646 feet     Latitude: 43 17N     Longitude: 123 22W

WEATHER
 
SELECT A DAY
Number of Records: 195,016;   Date Range: 1/2/95 - 7/29/14
 
SHARE

PRINT THIS DATA

[ ← Previous Day ]
WEATHER ALMANAC - JANUARY 23, 2013
[ Next Day → ]
[ °C ]   °F
Weather ElementAverageHighLow
Temperature42 °F43 °F (1:53 pm)37.9 °F (1:53 am)
Dewpoint41 °F42.8 °F (2:22 pm)36 °F (1:53 am)
Humidity96.3 %100 % (2:22 pm)87 % (1:16 pm)
Barometer30.03 in30.19 in (11:53 pm)29.88 in (4:53 am)
Wind Speed0.3 mph5.8 mph (4:26 pm)
Weather ElementAverage
Visibility3.8 mi
Wind DirectionNNE (7.7 °)

Weather ElementTotal
Precipitation1.26 in
Heating Degree Days24.6 (Base 65)
Averaged from 47 records on January 23, 2013
WEATHER CONDITIONS BREAKOUT
WIND DIRECTION BREAKOUT
WEATHER BY HOUR - JANUARY 23, 2013
[ °C ]   °F
Local TimeTemperatureDewpointHumidityBarometerVisibilityWind DirectionWind SpeedGust SpeedPrecipitationEventsConditions
1:53 AM37.9 °F36.0 °F93 %29.93 in6.0 miCalmClear
2:53 AM39.0 °F37.0 °F93 %29.91 in6.0 miCalmOvercast
3:53 AM37.9 °F37.0 °F97 %29.90 in8.0 miCalmMostly Cloudy
4:53 AM39.0 °F37.0 °F93 %29.88 in7.0 miCalmOvercast
5:53 AM39.0 °F36.0 °F89 %29.88 in7.0 miCalmOvercast
7:53 AM39.0 °F37.0 °F93 %29.90 in9.0 miCalmOvercast
8:53 AM39.0 °F37.0 °F93 %29.89 in5.0 miCalm0.00 inRainLight Rain
9:53 AM39.9 °F37.9 °F93 %29.94 in4.0 miCalm0.03 inRainLight Rain
10:53 AM41.0 °F37.9 °F89 %29.97 in4.0 miCalm0.05 inRainLight Rain
11:53 AM42.1 °F39.0 °F89 %29.97 in4.0 miCalm0.04 inRainLight Rain
12:53 PM42.1 °F41.0 °F96 %29.97 in2.0 miCalm0.08 inRainRain
1:16 PM42.8 °F39.2 °F87 %29.95 in3.0 miCalm0.04 inRainLight Rain
1:37 PM42.8 °F41.0 °F93 %29.95 in3.0 miCalm0.06 inRainLight Rain
1:41 PM42.8 °F41.0 °F93 %29.95 in2.5 miCalm0.07 inRainLight Rain
1:53 PM43.0 °F41.0 °F93 %29.96 in2.0 miCalm0.09 inRainRain
2:00 PM42.8 °F41.0 °F93 %29.95 in2.5 miCalm0.00 inRainLight Rain
2:22 PM42.8 °F42.8 °F100 %29.96 in2.0 miCalm0.04 inRainRain
2:36 PM42.8 °F41.0 °F93 %29.96 in2.5 miNorth (10°)4.6 mph0.06 inRainRain
2:53 PM42.1 °F42.1 °F100 %29.99 in2.5 miCalm0.08 inRainLight Rain
3:12 PM42.8 °F42.8 °F100 %29.98 in2.5 miCalm0.04 inRainRain
3:18 PM42.8 °F42.8 °F100 %29.99 in3.0 miCalm0.05 inRainRain
3:25 PM42.8 °F42.8 °F100 %29.99 in2.5 miCalm0.07 inRainRain
3:33 PM42.8 °F42.8 °F100 %29.99 in2.5 miCalm0.09 inRainRain
3:41 PM42.8 °F41.0 °F93 %29.99 in3.0 miCalm0.09 inRainLight Rain
3:53 PM43.0 °F42.1 °F97 %30.01 in4.0 miCalm0.10 inRainLight Rain
4:26 PM42.8 °F41.0 °F93 %30.02 in4.0 miNNW (340°)5.8 mph0.02 inRainLight Rain
4:44 PM42.8 °F42.8 °F100 %30.02 in4.0 miNorth (10°)5.8 mph0.04 inRainLight Rain
4:53 PM43.0 °F42.1 °F97 %30.04 in5.0 miCalm0.04 inRainLight Rain
5:16 PM42.8 °F41.0 °F93 %30.05 in8.0 miCalm0.01 inRainLight Rain
5:53 PM43.0 °F42.1 °F97 %30.09 in8.0 miCalm0.01 inRainLight Rain
6:53 PM43.0 °F42.1 °F97 %30.11 in5.0 miCalm0.00 inOvercast
7:20 PM42.8 °F42.8 °F100 %30.11 in3.0 miCalmOvercast
7:33 PM42.8 °F42.8 °F100 %30.11 in2.5 miCalmOvercast
7:41 PM42.8 °F42.8 °F100 %30.12 in2.5 miCalm0.01 inOvercast
7:53 PM43.0 °F42.1 °F97 %30.13 in2.5 miCalm0.01 inOvercast
7:58 PM42.8 °F42.8 °F100 %30.12 in3.0 miCalmOvercast
8:13 PM42.8 °F42.8 °F100 %30.12 in2.5 miCalmOvercast
8:53 PM43.0 °F42.1 °F97 %30.15 in2.5 miCalmOvercast
9:26 PM42.8 °F42.8 °F100 %30.16 in3.0 miCalm0.01 inOvercast
9:42 PM42.8 °F42.8 °F100 %30.16 in2.0 miCalm0.01 inOvercast
9:49 PM42.8 °F42.8 °F100 %30.16 in1.8 miCalm0.01 inOvercast
9:53 PM43.0 °F42.1 °F97 %30.17 in1.8 miCalm0.01 inOvercast
10:25 PM42.8 °F42.8 °F100 %30.16 in2.5 miCalmOvercast
10:32 PM42.8 °F42.8 °F100 %30.17 in3.0 miCalmOvercast
10:53 PM42.1 °F42.1 °F100 %30.18 in5.0 miCalmOvercast
11:33 PM42.8 °F42.8 °F100 %30.18 in2.5 miCalmOvercast
11:53 PM42.1 °F42.1 °F100 %30.19 in4.0 miCalmOvercast
Hourly data recorded from KRBG, located miles away from Winchester, Oregon







STORIES FROM OUR PARTNERS